Address 0x41b64195c03e0f9ab42787304861346755b2f428 4

Txn Hash Method
Block
From
To
Value [Txn Fee]
0xd7f834c1ee7d9afdb592d2445b6d2648c365c56ca4f6861a15737fe7fc6331e0Deposit ETH268178452022-06-19 17:23:3616 days 16 hrs ago0x41b64195c03e0f9ab42787304861346755b2f428OUT 0x2a58e9bbb5434fda7ff78051a4b82cb0ef669c171 MATIC0.02600844 120
0x5ad8e23e1fe4cca9eaec15f5a64fdd1404143bdeaf084b62d602f9a8ed5e0852Transfer268178372022-06-19 17:22:5616 days 16 hrs ago0x87c9b02a10ec2cb4dcb3b2e573e26169cf3cd9bf IN 0x41b64195c03e0f9ab42787304861346755b2f4281 MATIC0.0001055.000000018
0x9d69b3c27336dbcb5be4b3979761c1dcae76bd70aee71191ebf80174f327be1bTransfer266859252022-06-10 11:34:0425 days 21 hrs ago0x41b64195c03e0f9ab42787304861346755b2f428OUT 0x2058a9d7613eee744279e3856ef0eada5fcbaa7e0 MATIC0.000126691249 2.452262731
0x053162bb3bad61f132156f2c747dcdc3f82a6f173600eacc97267d68a86d3699Transfer266853632022-06-10 10:26:5525 days 23 hrs ago0x41b64195c03e0f9ab42787304861346755b2f428OUT0xb89f8ef37eb0b6aa4bb2bf06e3e9ac57ac2d31e10.2 MATIC0.000901000856 42.904802685
0x78fa65e0c5b90b5f188a3430df92833ef0c594dd66fb1feeebbe009c219dfa6aTransfer266853582022-06-10 10:26:0525 days 23 hrs ago0x41b64195c03e0f9ab42787304861346755b2f428SELF0x41b64195c03e0f9ab42787304861346755b2f4280.2 MATIC0.000737632001 35.125333418
0x177270028bb5e28678f4f1926aae295b4c18be7a369c644c20f701f2ab9d07bfTransfer266853512022-06-10 10:24:5525 days 23 hrs ago0x41b64195c03e0f9ab42787304861346755b2f428OUT0xb89f8ef37eb0b6aa4bb2bf06e3e9ac57ac2d31e10.2 MATIC0.00252 120
0xff42c1e544177bc0dc661da64cdeeb48b6b7018dd9c72eb77555ef22a91e738f0x4183e72b258185922022-04-06 10:21:3690 days 23 hrs ago0x41b64195c03e0f9ab42787304861346755b2f428OUT 0x185628fe4e3e03f1fc4a450f811b079a4964740d0 MATIC0.00399281069 4.009663305
0x4348cc770164ab564bf9ee1f48042368a3191abb4efdc96d70d7a7f9913b328c0x4183e72b258185842022-04-06 10:20:1690 days 23 hrs ago0x41b64195c03e0f9ab42787304861346755b2f428OUT 0x185628fe4e3e03f1fc4a450f811b079a4964740d0 MATIC0.004514113097 4.533165994
0xd93f01df2da5716cbac333ec14a61f66e0abc3da8822322a2cafbef33f3cd3cd0x99743e8f258184422022-04-06 9:46:2390 days 23 hrs ago0x41b64195c03e0f9ab42787304861346755b2f428OUT 0xeae26794abba8a6e58ba42e9dffb8e819ac7acac0 MATIC0.004081161008 28.064261314
0x707e6d226efb75460db344187e0174b8c83a59c26ef96098cf745433d8ba4701Approve258184322022-04-06 9:43:0390 days 23 hrs ago0x41b64195c03e0f9ab42787304861346755b2f428OUT 0x2058a9d7613eee744279e3856ef0eada5fcbaa7e0 MATIC0.000750954016 28.663461059
0x0d66630659cfb09fc2643ed6dde249d2b26f37c98d27fd4e19f70141d07078580x4183e72b258184312022-04-06 9:42:4290 days 23 hrs ago0x41b64195c03e0f9ab42787304861346755b2f428OUT 0x185628fe4e3e03f1fc4a450f811b079a4964740d0 MATIC0.026038412212 26.147998474
0x38e0c15ded2959a9e03fdca5748f8497c17b0adb65121e2fa23b34de07f98b900x4183e72b258184292022-04-06 9:42:0290 days 23 hrs ago0x41b64195c03e0f9ab42787304861346755b2f428OUT 0x185628fe4e3e03f1fc4a450f811b079a4964740d0 MATIC0.02687078008 26.528640208
0xba3fc997fbea4205055e55fddf2ed022787f3a28ac834763b2e0710c38b778b20x4183e72b258182972022-04-06 9:15:3091 days 15 mins ago0x41b64195c03e0f9ab42787304861346755b2f428OUT 0x185628fe4e3e03f1fc4a450f811b079a4964740d0 MATIC0.008864261799 8.751395057
0x89571be846f4b5ae7bf58adfe4b4f8e457815abc928345110d68469d870a11b20x4183e72b255959522022-03-20 18:30:32107 days 15 hrs ago0x41b64195c03e0f9ab42787304861346755b2f428OUT 0x185628fe4e3e03f1fc4a450f811b079a4964740d0 MATIC0.003879063772 3.895389349
0x4eb5253d937200f2ac24a4ca8dfe7431f21f56c6e531b123f0512f487695a8810x4183e72b255658002022-03-18 11:58:01109 days 21 hrs ago0x41b64195c03e0f9ab42787304861346755b2f428OUT 0x185628fe4e3e03f1fc4a450f811b079a4964740d0 MATIC0.002439732066 2.450000017
0xe438b68252df2ecfc84948883cd947e10d6d48293272fbca7c881aea7debe5130x4183e72b255654272022-03-18 11:16:10109 days 22 hrs ago0x41b64195c03e0f9ab42787304861346755b2f428OUT 0x185628fe4e3e03f1fc4a450f811b079a4964740d0 MATIC0.002927607901 2.940000002
0xdcbfe9734fa3c36a80bfa6a742aea1393b6718c7c63a0531945ca3dfde69095b0x4183e72b255636992022-03-18 8:14:23110 days 1 hr ago0x41b64195c03e0f9ab42787304861346755b2f428OUT 0x185628fe4e3e03f1fc4a450f811b079a4964740d0 MATIC0.002532272527 2.500000027
0x6f0caaa35dc3b99591f18ceb4047d03a06f527a293be0448f0e1060095a114b00x4183e72b255559902022-03-17 19:18:33110 days 14 hrs ago0x41b64195c03e0f9ab42787304861346755b2f428OUT 0x185628fe4e3e03f1fc4a450f811b079a4964740d0 MATIC0.00248952252 2.500000021
0xbe83395528af908bf509decfce3fd8bf0cb1839635b2eb3da1cd9b372ae96c9f0x4183e72b255558882022-03-17 19:08:06110 days 14 hrs ago0x41b64195c03e0f9ab42787304861346755b2f428OUT 0x185628fe4e3e03f1fc4a450f811b079a4964740d0 MATIC0.002927678484 2.940000025
0x909a8b89b639c8dbe01de75b40d8fc7135595bd246d77008b644c63dbea5de3d0x4183e72b255557342022-03-17 18:55:14110 days 14 hrs ago0x41b64195c03e0f9ab42787304861346755b2f428OUT 0x185628fe4e3e03f1fc4a450f811b079a4964740d0 MATIC0.00292767858 2.940000121
0x32478435f941bbfd1477678daa1186fa140b59aa79d026b1d957e40193b76b640x4183e72b255544272022-03-17 16:28:38110 days 17 hrs ago0x41b64195c03e0f9ab42787304861346755b2f428OUT 0x185628fe4e3e03f1fc4a450f811b079a4964740d0 MATIC0.003537988076 3.552921003
0xce8d051fe3b4fdca214806f916b85be5e6a1408f415ce08281bb2f74cf2d33f90x4183e72b255544072022-03-17 16:26:58110 days 17 hrs ago0x41b64195c03e0f9ab42787304861346755b2f428OUT 0x185628fe4e3e03f1fc4a450f811b079a4964740d0 MATIC0.007001884746 7.031353148
0xc20277a06a39e65bd58bf7cd78d12da7b4f77e2b845e6cb20c56b1f495bc6d110x4183e72b255543582022-03-17 16:22:07110 days 17 hrs ago0x41b64195c03e0f9ab42787304861346755b2f428OUT 0x185628fe4e3e03f1fc4a450f811b079a4964740d0 MATIC0.009952315801 9.9942015
0x95ae0e0064a2d9b128c95279ab79a05ef36797a37d0ec413905df10596e4c9d80x4183e72b255531152022-03-17 13:58:38110 days 19 hrs ago0x41b64195c03e0f9ab42787304861346755b2f428OUT 0x185628fe4e3e03f1fc4a450f811b079a4964740d0 MATIC0.002439702869 2.45000022
0x53df2f4f343509c5908983721281159080b39d4c4fb19f9c3ff5cdf0cb21b2400x4183e72b255530942022-03-17 13:55:08110 days 19 hrs ago0x41b64195c03e0f9ab42787304861346755b2f428OUT 0x185628fe4e3e03f1fc4a450f811b079a4964740d0 MATIC0.002439732136 2.450000087
[ Download CSV Export 
Latest 2 internal transactions
Parent Txn Hash Block From To Value
0xf8470a7b099a6d151ececb8512eb251b6ba9da74869cf75fb448d4e99e5161b5266853552022-06-10 10:25:3525 days 23 hrs ago 0x7f092e65c688a509737fcd8d0998dd12208f52970x41b64195c03e0f9ab42787304861346755b2f4280.2 MATIC
0x203b0a851f73c89791b316b5ed168a91d3f3349fa458411766f5628f205135de210746582021-11-05 9:22:04243 days 9 mins ago 0x7f092e65c688a509737fcd8d0998dd12208f52970x41b64195c03e0f9ab42787304861346755b2f4281 MATIC
[ Download CSV Export 
Loading

Contract Name:
0 MATIC

Compiler Version
0

Optimization Enabled:
0 MATIC

Other Settings:
-NA-
Block Transaction Gas Used Reward
Age Block Fee Address BC Fee Address Voting Power Jailed Incoming
Block Uncle Number Difficulty Gas Used Reward
Loading